Weather History for Roxboro, NC

Change the Weather History Date:

Saturday, June 14, 2014

  Actual Average Record
Temperature  
Mean Temperature 70 °F -  
Max Temperature 80 °F 84 °F 95 °F (2005)
Min Temperature 59 °F 60 °F 44 °F (1968)
Cooling Degree Days 4    
Growing Degree Days 20 (Base 50)    
Moisture  
Dew Point 59 °F    
Average Humidity 73    
Maximum Humidity 100    
Minimum Humidity 30    
Precipitation  
Precipitation 0.00 in - - ()
Sea Level Pressure  
Sea Level Pressure 30.02 in    
Wind  
Wind Speed 2 mph (NNW)    
Max Wind Speed 9 mph    
Max Gust Speed -    
Visibility 9 miles    
Events Fog    
Averages and records for this station are not official NWS values.
T = Trace of Precipitation, MM = Missing Value Source: NWS Daily Summary

Daily Weather History Graph

Daily Weather History Graph

Search for Another Location

Airport:

Trip Planner

Search our weather history database for the weather conditions in past years. The results will help you decide how hot, cold, wet, or windy it might be!

Date:

Astronomy

Jun. 14, 2014 Rise Set
Actual Time 5:57 AM EDT 8:34 PM EDT
Civil Twilight 5:27 AM EDT 9:05 PM EDT
Nautical Twilight 4:49 AM EDT 9:42 PM EDT
Astronomical Twilight 4:07 AM EDT 10:25 PM EDT
Moon 10:00 PM EDT (6/14) 7:37 AM EDT (6/14)
Length of Visible Light 15h 37m
Length of Day
14h 36m
Full, 97% of the Moon is Illuminated
Jun 14
Full
Jun 19
Last Quarter
Jun 27
New
Jul 5
First Quarter
Jul 12
Full

Hourly Weather History & Observations

Time (EDT) Temp. Dew Point Humidity Pressure Visibility Wind Dir Wind Speed Gust Speed Precip Events Conditions
12:15 AM 68.0 °F 68.0 °F 100% 29.92 in 5.0 mi Calm Calm - N/A   Clear
12:35 AM 68.0 °F 68.0 °F 100% 29.92 in 5.0 mi Calm Calm - N/A   Clear
12:55 AM 68.0 °F 68.0 °F 100% 29.93 in 7.0 mi Calm Calm - N/A   Clear
1:15 AM 66.2 °F 66.2 °F 100% 29.93 in 2.0 mi Calm Calm - N/A   Clear
1:35 AM 66.2 °F 66.2 °F 100% 29.93 in 7.0 mi Calm Calm - N/A   Clear
1:55 AM 66.2 °F 66.2 °F 100% 29.94 in 4.0 mi Calm Calm - N/A   Clear
2:15 AM 66.2 °F 66.2 °F 100% 29.94 in 10.0 mi Calm Calm - N/A   Clear
2:35 AM 66.2 °F 66.2 °F 100% 29.94 in 10.0 mi Calm Calm - N/A   Clear
2:55 AM 64.4 °F 64.4 °F 100% 29.95 in 7.0 mi Calm Calm - N/A   Clear
3:15 AM 64.4 °F 64.4 °F 100% 29.95 in 1.0 mi Calm Calm - N/A   Mist
3:35 AM 64.4 °F 64.4 °F 100% 29.95 in 10.0 mi Calm Calm - N/A   Clear
3:55 AM 64.4 °F 64.4 °F 100% 29.95 in 10.0 mi Calm Calm - N/A   Clear
4:15 AM 64.4 °F 64.4 °F 100% 29.94 in 10.0 mi Calm Calm - N/A   Clear
4:35 AM 62.6 °F 62.6 °F 100% 29.95 in 0.8 mi Calm Calm - N/A   Mist
4:55 AM 62.6 °F 62.6 °F 100% 29.95 in 0.5 mi Calm Calm - N/A Fog Fog
5:15 AM 62.6 °F 62.6 °F 100% 29.95 in 1.8 mi Calm Calm - N/A   Mist
5:35 AM 62.6 °F 62.6 °F 100% 29.96 in 10.0 mi Calm Calm - N/A   Clear
5:55 AM 62.6 °F 62.6 °F 100% 29.97 in 7.0 mi Calm Calm - N/A   Clear
6:15 AM 60.8 °F 60.8 °F 100% 29.97 in 0.5 mi Calm Calm - N/A Fog Fog
6:35 AM 62.6 °F 62.6 °F 100% 29.98 in 7.0 mi Calm Calm - N/A   Clear
6:55 AM 62.6 °F 62.6 °F 100% 29.99 in 10.0 mi Calm Calm - N/A   Clear
7:15 AM 64.4 °F 64.4 °F 100% 29.99 in 10.0 mi Calm Calm - N/A   Clear
7:35 AM 66.2 °F 64.4 °F 94% 30.00 in 10.0 mi North 5.8 mph - N/A   Clear
7:55 AM 68.0 °F 64.4 °F 88% 30.01 in 10.0 mi NNW 3.5 mph - N/A   Clear
8:15 AM 68.0 °F 62.6 °F 83% 30.02 in 10.0 mi North 5.8 mph - N/A   Scattered Clouds
8:35 AM 69.8 °F 62.6 °F 78% 30.02 in 10.0 mi North 6.9 mph - N/A   Overcast
8:55 AM 69.8 °F 62.6 °F 78% 30.03 in 10.0 mi North 8.1 mph - N/A   Overcast
9:15 AM 71.6 °F 62.6 °F 73% 30.04 in 10.0 mi North 6.9 mph - N/A   Mostly Cloudy
9:35 AM 71.6 °F 62.6 °F 73% 30.05 in 10.0 mi North 4.6 mph - N/A   Mostly Cloudy
9:55 AM 71.6 °F 62.6 °F 73% 30.05 in 10.0 mi NNE 6.9 mph - N/A   Scattered Clouds
10:15 AM 73.4 °F 62.6 °F 69% 30.04 in 10.0 mi North 9.2 mph - N/A   Scattered Clouds
10:35 AM 73.4 °F 62.6 °F 69% 30.05 in 10.0 mi North 8.1 mph - N/A   Mostly Cloudy
10:55 AM 73.4 °F 60.8 °F 65% 30.06 in 10.0 mi North 5.8 mph - N/A   Overcast
11:15 AM 73.4 °F 60.8 °F 65% 30.06 in 10.0 mi North 8.1 mph - N/A   Mostly Cloudy
11:35 AM 77.0 °F 60.8 °F 57% 30.05 in 10.0 mi NE 9.2 mph - N/A   Scattered Clouds
11:55 AM 77.0 °F 60.8 °F 57% 30.05 in 10.0 mi NE 5.8 mph - N/A   Scattered Clouds
12:15 PM 77.0 °F 60.8 °F 57% 30.05 in 10.0 mi North 3.5 mph - N/A   Scattered Clouds
12:35 PM 78.8 °F 60.8 °F 54% 30.05 in 10.0 mi North 4.6 mph - N/A   Mostly Cloudy
12:55 PM 77.0 °F 59.0 °F 54% 30.05 in 10.0 mi NNW 6.9 mph - N/A   Scattered Clouds
1:15 PM 78.8 °F 57.2 °F 47% 30.05 in 10.0 mi WNW 4.6 mph - N/A   Clear
1:35 PM 78.8 °F 55.4 °F 44% 30.05 in 10.0 mi NW 5.8 mph - N/A   Clear
1:55 PM 78.8 °F 51.8 °F 39% 30.05 in 10.0 mi WNW 6.9 mph - N/A   Clear
2:15 PM 78.8 °F 50.0 °F 36% 30.04 in 10.0 mi West 5.8 mph - N/A   Clear
2:35 PM 78.8 °F 46.4 °F 32% 30.04 in 10.0 mi North 5.8 mph - N/A   Clear
2:55 PM 78.8 °F 44.6 °F 30% 30.03 in 10.0 mi Calm Calm - N/A   Clear
3:15 PM 78.8 °F 48.2 °F 34% 30.03 in 10.0 mi West 5.8 mph - N/A   Clear
3:35 PM 80.6 °F 50.0 °F 34% 30.03 in 10.0 mi WNW 8.1 mph - N/A   Clear
3:55 PM 80.6 °F 51.8 °F 37% 30.03 in 10.0 mi WNW 4.6 mph - N/A   Clear
4:15 PM 80.6 °F 50.0 °F 34% 30.02 in 10.0 mi NNW 3.5 mph - N/A   Clear
4:35 PM 80.6 °F 48.2 °F 32% 30.02 in 10.0 mi NNW 8.1 mph - N/A   Clear
4:55 PM 80.6 °F 51.8 °F 37% 30.02 in 10.0 mi NNW 3.5 mph - N/A   Clear
5:15 PM 80.6 °F 50.0 °F 34% 30.02 in 10.0 mi WNW 4.6 mph - N/A   Clear
5:35 PM 80.6 °F 48.2 °F 32% 30.02 in 10.0 mi Calm Calm - N/A   Clear
5:55 PM 80.6 °F 50.0 °F 34% 30.02 in 10.0 mi Calm Calm - N/A   Clear
6:15 PM 80.6 °F 50.0 °F 34% 30.03 in 10.0 mi West 3.5 mph - N/A   Clear
6:35 PM 80.6 °F 50.0 °F 34% 30.03 in 10.0 mi Calm Calm - N/A   Clear
6:55 PM 80.6 °F 50.0 °F 34% 30.03 in 10.0 mi North 3.5 mph - N/A   Clear
7:15 PM 78.8 °F 53.6 °F 42% 30.04 in 10.0 mi Calm Calm - N/A   Clear
7:35 PM 78.8 °F 60.8 °F 54% 30.05 in 10.0 mi Calm Calm - N/A   Clear
7:55 PM 73.4 °F 57.2 °F 57% 30.05 in 10.0 mi Calm Calm - N/A   Clear
8:15 PM 71.6 °F 55.4 °F 57% 30.05 in 10.0 mi Calm Calm - N/A   Clear
8:35 PM 68.0 °F 59.0 °F 73% 30.05 in 10.0 mi Calm Calm - N/A   Clear
8:55 PM 66.2 °F 60.8 °F 83% 30.06 in 10.0 mi Calm Calm - N/A   Clear
9:15 PM 64.4 °F 60.8 °F 88% 30.07 in 10.0 mi Calm Calm - N/A   Clear
9:35 PM 62.6 °F 59.0 °F 88% 30.07 in 10.0 mi Calm Calm - N/A   Clear
9:55 PM 62.6 °F 60.8 °F 94% 30.08 in 10.0 mi Calm Calm - N/A   Clear
10:15 PM 60.8 °F 59.0 °F 94% 30.10 in 10.0 mi Calm Calm - N/A   Clear
10:35 PM 60.8 °F 59.0 °F 94% 30.10 in 10.0 mi Calm Calm - N/A   Clear
10:55 PM 60.8 °F 60.8 °F 100% 30.10 in 10.0 mi Calm Calm - N/A   Clear
11:15 PM 59.0 °F 59.0 °F 100% 30.10 in 10.0 mi Calm Calm - N/A   Clear
11:35 PM 59.0 °F 59.0 °F 100% 30.10 in 10.0 mi Calm Calm - N/A   Clear
11:55 PM 59.0 °F 59.0 °F 100% 30.11 in 10.0 mi Calm Calm - N/A   Clear